North Bennington, VT

3:23 AM EST on February 24, 2017 (GMT -0500)
Morse State

Weather History for KDDH - January, 2013

Change the Weather History Date:

Wednesday, January 9, 2013

  Actual Average Record
Temperature  
Mean Temperature 30 °F 21 °F  
Max Temperature 45 °F 30 °F 42 °F (2016)
Min Temperature 14 °F 11 °F -1 °F (2017)
Degree Days  
Heating Degree Days 35 44  
Month to date heating degree days 395 392  
Since 1 July heating degree days 2840 3164  
Cooling Degree Days 0 0  
Month to date cooling degree days 0 0  
Year to date cooling degree days 0 0  
Moisture  
Dew Point 20 °F    
Average Humidity 69    
Maximum Humidity 92    
Minimum Humidity 45    
Precipitation  
Precipitation 0.00 in 0.09 in 0.01 in (2015)
Month to date precipitation 0.01 0.97  
Year to date precipitation 0.01 0.97  
Sea Level Pressure  
Sea Level Pressure 30.22 in    
Wind  
Wind Speed 5 mph (SW)    
Max Wind Speed 24 mph    
Max Gust Speed 33 mph    
Visibility 7 miles    
Events      
T = Trace of Precipitation, MM = Missing Value Source: NWS Daily Summary

Daily Weather History Graph

Daily Weather History Graph

Search for Another Location

Airport or City:

Trip Planner

Search our weather history database for the weather conditions in past years. The results will help you decide how hot, cold, wet, or windy it might be!

Date:

Astronomy

Jan. 09, 2013 Rise Set
Actual Time 7:23 AM EST 4:37 PM EST
Civil Twilight 6:51 AM EST 5:09 PM EST
Nautical Twilight 6:16 AM EST 5:44 PM EST
Astronomical Twilight 5:42 AM EST 6:18 PM EST
Moon 4:59 AM EST (1/9) 2:36 PM EST (1/9)
Length of Visible Light 10h 17m
Length of Day
9h 14m
Waning Crescent, 6% of the Moon is Illuminated
Jan 9
Waning Crescent
Jan 11
New
Jan 18
First Quarter
Jan 26
Full
Feb 3
Last Quarter

Hourly Weather History & Observations

Time (EST) Temp. Windchill Dew Point Humidity Pressure Visibility Wind Dir Wind Speed Gust Speed Precip Events Conditions
12:54 AM 21.9 °F - 18.0 °F 85% 30.37 in 5.0 mi Calm Calm - N/A   Clear
1:54 AM 21.9 °F - 19.0 °F 89% 30.37 in 4.0 mi Calm Calm - N/A   Clear
2:04 AM 19.4 °F - 17.6 °F 93% 30.33 in 2.0 mi Calm Calm - N/A   Clear
2:16 AM 19.4 °F - 17.6 °F 93% 30.33 in 4.0 mi Calm Calm - N/A   Clear
2:54 AM 19.0 °F - 16.0 °F 88% 30.35 in 4.0 mi Calm Calm - N/A   Mist
3:54 AM 18.0 °F - 16.0 °F 92% 30.34 in 3.0 mi Calm Calm - N/A   Clear
4:54 AM 16.0 °F - 14.0 °F 92% 30.34 in 3.0 mi Calm Calm - N/A   Clear
5:45 AM 15.8 °F - 12.2 °F 86% 30.30 in 2.5 mi Calm Calm - N/A   Clear
5:54 AM 16.0 °F - 14.0 °F 92% 30.35 in 3.0 mi Calm Calm - N/A   Clear
6:54 AM 16.0 °F - 14.0 °F 92% 30.36 in 3.0 mi Calm Calm - N/A   Clear
7:54 AM 15.1 °F - 12.0 °F 88% 30.35 in 3.0 mi Calm Calm - N/A   Clear
8:06 AM 17.6 °F - 14.0 °F 86% 30.31 in 2.5 mi Calm Calm - N/A   Clear
8:23 AM 15.8 °F - 10.4 °F 79% 30.30 in 3.0 mi Calm Calm - N/A   Clear
8:54 AM 19.0 °F - 16.0 °F 88% 30.32 in 4.0 mi Calm Calm - N/A   Clear
9:54 AM 23.0 °F - 19.9 °F 88% 30.32 in 6.0 mi Calm Calm - N/A   Clear
10:54 AM 27.0 °F - 21.9 °F 81% 30.25 in 8.0 mi Calm Calm - N/A   Clear
11:54 AM 33.1 °F 30.0 °F 24.1 °F 70% 30.18 in 10.0 mi Variable 3.5 mph - N/A   Clear
12:54 PM 42.1 °F 36.1 °F 23.0 °F 47% 30.18 in 10.0 mi South 10.4 mph - N/A   Mostly Cloudy
1:54 PM 43.0 °F 38.2 °F 25.0 °F 49% 30.10 in 10.0 mi SSW 8.1 mph - N/A   Overcast
2:54 PM 42.1 °F 37.7 °F 27.0 °F 55% 30.05 in 10.0 mi SSW 6.9 mph - N/A   Overcast
3:54 PM 42.1 °F 36.1 °F 27.0 °F 55% 30.01 in 10.0 mi SSW 10.4 mph - N/A   Overcast
4:54 PM 44.1 °F 41.5 °F 28.9 °F 55% 29.99 in 10.0 mi SSW 4.6 mph 17.3 mph N/A   Clear
5:54 PM 43.0 °F 37.2 °F 30.0 °F 60% 30.01 in 10.0 mi SW 10.4 mph 17.3 mph N/A   Clear
6:54 PM 43.0 °F 37.7 °F 30.0 °F 60% 30.03 in 10.0 mi SW 9.2 mph 18.4 mph N/A   Partly Cloudy
7:54 PM 42.1 °F 36.1 °F 28.9 °F 60% 30.05 in 10.0 mi SW 10.4 mph - N/A   Mostly Cloudy
8:54 PM 43.0 °F 36.4 °F 26.1 °F 51% 30.09 in 10.0 mi West 12.7 mph 33.4 mph N/A   Scattered Clouds
9:54 PM 42.1 °F 37.7 °F 23.0 °F 47% 30.09 in 10.0 mi Variable 6.9 mph 19.6 mph N/A   Overcast
10:54 PM 42.1 °F 36.1 °F 23.0 °F 47% 30.09 in 10.0 mi West 10.4 mph 19.6 mph N/A   Overcast
11:54 PM 42.1 °F 34.2 °F 25.0 °F 51% 30.10 in 10.0 mi WSW 16.1 mph 23.0 mph N/A   Overcast